Nampa, ID

1:41 PM MDT on September 24, 2017 (GMT -0600)
Nampa

Weather History for KMAN - June, 2013

Change the Weather History Date:

Thursday, June 20, 2013

  Actual Average (KBOI) Record (KBOI)
Temperature  
Mean Temperature 55 °F -  
Max Temperature 68 °F 83 °F 103 °F (1900)
Min Temperature 42 °F 54 °F 37 °F (1916)
Degree Days  
Heating Degree Days 10    
Growing Degree Days 5 (Base 50)    
Moisture  
Dew Point 39 °F    
Average Humidity 61    
Maximum Humidity 100    
Minimum Humidity 26    
Precipitation  
Precipitation 0.00 in - - ()
Sea Level Pressure  
Sea Level Pressure 30.04 in    
Wind  
Wind Speed 3 mph (East)    
Max Wind Speed 14 mph    
Max Gust Speed 21 mph    
Visibility 10 miles    
Events      
Averages and records for this station are not official NWS values.
T = Trace of Precipitation, MM = Missing Value Source: NWS Daily Summary

Daily Weather History Graph

Daily Weather History Graph

Search for Another Location

Airport or City:

Trip Planner

Search our weather history database for the weather conditions in past years. The results will help you decide how hot, cold, wet, or windy it might be!

Date:

Astronomy

Jun. 20, 2013 Rise Set
Actual Time 6:04 AM MDT 9:30 PM MDT
Civil Twilight 5:28 AM MDT 10:06 PM MDT
Nautical Twilight 4:41 AM MDT 10:53 PM MDT
Astronomical Twilight 3:42 AM MDT 11:53 PM MDT
Moon 6:35 PM MDT (6/20) 3:38 AM MDT (6/20)
Length of Visible Light 16h 38m
Length of Day
15h 26m
Waxing Gibbous, 89% of the Moon is Illuminated
Jun 20
Waxing Gibbous
Jun 23
Full
Jun 29
Last Quarter
Jul 8
New
Jul 15
First Quarter

Hourly Weather History & Observations

Time (MDT) Temp. Windchill Dew Point Humidity Pressure Visibility Wind Dir Wind Speed Gust Speed Precip Events Conditions
12:15 AM 48.2 °F - 46.4 °F 93% 30.06 in 10.0 mi Calm Calm - N/A   Overcast
12:35 AM 46.4 °F - 46.4 °F 100% 30.07 in 10.0 mi Calm Calm - N/A   Mostly Cloudy
12:55 AM 46.4 °F 45.2 °F 46.4 °F 100% 30.06 in 10.0 mi East 3.5 mph - N/A   Overcast
1:15 AM 46.4 °F 45.2 °F 46.4 °F 100% 30.05 in 10.0 mi ENE 3.5 mph - N/A   Overcast
1:35 AM 46.4 °F 44.3 °F 46.4 °F 100% 30.05 in 10.0 mi NE 4.6 mph - N/A   Mostly Cloudy
1:55 AM 46.4 °F 44.3 °F 46.4 °F 100% 30.05 in 10.0 mi NE 4.6 mph - N/A   Mostly Cloudy
2:15 AM 46.4 °F 44.3 °F 46.4 °F 100% 30.05 in 10.0 mi ENE 4.6 mph - N/A   Partly Cloudy
2:35 AM 46.4 °F 45.2 °F 44.6 °F 93% 30.06 in 10.0 mi SSW 3.5 mph - N/A   Scattered Clouds
2:55 AM 44.6 °F - 44.6 °F 100% 30.06 in 10.0 mi Calm Calm - N/A   Overcast
3:15 AM 44.6 °F 43.1 °F 44.6 °F 100% 30.06 in 10.0 mi SSE 3.5 mph - N/A   Overcast
3:35 AM 44.6 °F 43.1 °F 44.6 °F 100% 30.05 in 10.0 mi SSE 3.5 mph - N/A   Scattered Clouds
3:55 AM 42.8 °F - 42.8 °F 100% 30.06 in 10.0 mi Calm Calm - N/A   Mostly Cloudy
4:15 AM 42.8 °F 41.1 °F 42.8 °F 100% 30.05 in 10.0 mi SE 3.5 mph - N/A   Mostly Cloudy
4:35 AM 44.6 °F - 44.6 °F 100% 30.05 in 10.0 mi Calm Calm - N/A   Overcast
4:55 AM 44.6 °F 43.1 °F 44.6 °F 100% 30.05 in 10.0 mi ESE 3.5 mph - N/A   Overcast
5:15 AM 42.8 °F 41.1 °F 42.8 °F 100% 30.05 in 10.0 mi East 3.5 mph - N/A   Scattered Clouds
5:35 AM 42.8 °F - 42.8 °F 100% 30.05 in 10.0 mi Calm Calm - N/A   Clear
5:55 AM 42.8 °F - 42.8 °F 100% 30.05 in 10.0 mi Calm Calm - N/A   Mostly Cloudy
6:15 AM 44.6 °F 43.1 °F 44.6 °F 100% 30.05 in 10.0 mi SE 3.5 mph - N/A   Overcast
6:35 AM 44.6 °F 43.1 °F 44.6 °F 100% 30.06 in 10.0 mi ESE 3.5 mph - N/A   Overcast
6:55 AM 44.6 °F 43.1 °F 44.6 °F 100% 30.06 in 10.0 mi ESE 3.5 mph - N/A   Overcast
7:15 AM 46.4 °F 45.2 °F 44.6 °F 93% 30.06 in 10.0 mi SE 3.5 mph - N/A   Overcast
7:35 AM 44.6 °F 43.1 °F 44.6 °F 100% 30.06 in 10.0 mi SE 3.5 mph - N/A   Scattered Clouds
7:55 AM 48.2 °F - 46.4 °F 93% 30.06 in 10.0 mi SE 3.5 mph - N/A   Partly Cloudy
8:15 AM 48.2 °F - 46.4 °F 93% 30.07 in 10.0 mi SE 4.6 mph - N/A   Mostly Cloudy
8:35 AM 50.0 °F - 46.4 °F 87% 30.07 in 10.0 mi SSE 4.6 mph - N/A   Scattered Clouds
8:55 AM 51.8 °F - 46.4 °F 82% 30.07 in 10.0 mi SE 3.5 mph - N/A   Scattered Clouds
9:15 AM 53.6 °F - 44.6 °F 72% 30.08 in 10.0 mi SSE 3.5 mph - N/A   Overcast
9:35 AM 55.4 °F - 42.8 °F 63% 30.08 in 10.0 mi ESE 3.5 mph - N/A   Overcast
9:55 AM 55.4 °F - 41.0 °F 58% 30.07 in 10.0 mi WSW 5.8 mph - N/A   Overcast
10:15 AM 55.4 °F - 41.0 °F 58% 30.08 in 10.0 mi SSW 4.6 mph - N/A   Overcast
10:35 AM 55.4 °F - 41.0 °F 58% 30.08 in 10.0 mi WSW 3.5 mph - N/A   Overcast
10:55 AM 57.2 °F - 39.2 °F 51% 30.07 in 10.0 mi SSW 3.5 mph - N/A   Mostly Cloudy
11:15 AM 57.2 °F - 39.2 °F 51% 30.07 in 10.0 mi Calm Calm - N/A   Scattered Clouds
11:35 AM 59.0 °F - 39.2 °F 48% 30.07 in 10.0 mi Calm Calm - N/A   Mostly Cloudy
11:55 AM 59.0 °F - 39.2 °F 48% 30.07 in 10.0 mi NNE 3.5 mph - N/A   Overcast
12:15 PM 59.0 °F - 39.2 °F 48% 30.07 in 10.0 mi NE 5.8 mph - N/A   Overcast
12:35 PM 60.8 °F - 39.2 °F 45% 30.06 in 10.0 mi SE 5.8 mph - N/A   Mostly Cloudy
12:55 PM 59.0 °F - 37.4 °F 45% 30.06 in 10.0 mi SSE 3.5 mph - N/A   Mostly Cloudy
1:15 PM 59.0 °F - 37.4 °F 45% 30.06 in 10.0 mi ESE 5.8 mph - N/A   Overcast
1:35 PM 60.8 °F - 35.6 °F 39% 30.06 in 10.0 mi Calm Calm - N/A   Overcast
1:55 PM 64.4 °F - 33.8 °F 32% 30.05 in 10.0 mi Calm Calm - N/A   Scattered Clouds
2:15 PM 62.6 °F - 33.8 °F 34% 30.04 in 10.0 mi Calm Calm - N/A   Clear
2:35 PM 64.4 °F - 35.6 °F 34% 30.03 in 10.0 mi Calm Calm - N/A   Partly Cloudy
2:55 PM 64.4 °F - 32.0 °F 30% 30.03 in 10.0 mi NNW 8.1 mph - N/A   Partly Cloudy
3:15 PM 64.4 °F - 32.0 °F 30% 30.02 in 10.0 mi NE 3.5 mph - N/A   Clear
3:35 PM 66.2 °F - 32.0 °F 28% 30.02 in 10.0 mi ENE 3.5 mph - N/A   Clear
3:55 PM 66.2 °F - 35.6 °F 32% 30.01 in 10.0 mi ENE 6.9 mph - N/A   Clear
4:15 PM 66.2 °F - 33.8 °F 30% 30.01 in 10.0 mi NE 6.9 mph - N/A   Clear
4:35 PM 66.2 °F - 33.8 °F 30% 30.00 in 10.0 mi ENE 5.8 mph - N/A   Clear
4:55 PM 68.0 °F - 32.0 °F 26% 30.00 in 10.0 mi ENE 9.2 mph - N/A   Clear
5:15 PM 68.0 °F - 33.8 °F 28% 30.00 in 10.0 mi ENE 5.8 mph - N/A   Clear
5:35 PM 68.0 °F - 32.0 °F 26% 29.99 in 10.0 mi ENE 5.8 mph - N/A   Clear
5:55 PM 68.0 °F - 32.0 °F 26% 29.99 in 10.0 mi NW 6.9 mph - N/A   Clear
6:15 PM 68.0 °F - 32.0 °F 26% 29.99 in 10.0 mi Calm Calm - N/A   Clear
6:35 PM 68.0 °F - 32.0 °F 26% 29.98 in 10.0 mi ENE 5.8 mph - N/A   Clear
6:55 PM 68.0 °F - 32.0 °F 26% 29.98 in 10.0 mi ENE 5.8 mph - N/A   Clear
7:15 PM 68.0 °F - 32.0 °F 26% 29.97 in 10.0 mi ENE 5.8 mph - N/A   Clear
7:35 PM 68.0 °F - 32.0 °F 26% 29.98 in 10.0 mi North 9.2 mph - N/A   Clear
7:55 PM 66.2 °F - 32.0 °F 28% 29.98 in 10.0 mi NNW 6.9 mph - N/A   Clear
8:15 PM 66.2 °F - 32.0 °F 28% 29.98 in 10.0 mi North 6.9 mph - N/A   Clear
8:35 PM 66.2 °F - 33.8 °F 30% 29.98 in 10.0 mi NNW 6.9 mph - N/A   Clear
8:55 PM 66.2 °F - 35.6 °F 32% 29.98 in 10.0 mi NNW 8.1 mph - N/A   Clear
9:15 PM 64.4 °F - 35.6 °F 34% 29.98 in 10.0 mi NNW 8.1 mph - N/A   Clear
9:35 PM 64.4 °F - 35.6 °F 34% 29.99 in 10.0 mi North 5.8 mph - N/A   Partly Cloudy
9:55 PM 64.4 °F - 33.8 °F 32% 29.99 in 10.0 mi NNW 6.9 mph - N/A   Mostly Cloudy
10:15 PM 64.4 °F - 35.6 °F 34% 30.00 in 10.0 mi NNW 4.6 mph - N/A   Overcast
10:35 PM 64.4 °F - 35.6 °F 34% 30.01 in 10.0 mi NW 4.6 mph - N/A   Overcast
10:55 PM 59.0 °F - 41.0 °F 51% 30.02 in 10.0 mi WSW 11.5 mph 20.7 mph N/A   Overcast
11:15 PM 59.0 °F - 41.0 °F 51% 30.02 in 10.0 mi WSW 12.7 mph 19.6 mph N/A   Overcast
11:35 PM 59.0 °F - 39.2 °F 48% 30.01 in 10.0 mi SW 13.8 mph 18.4 mph N/A   Scattered Clouds
11:55 PM 59.0 °F - 39.2 °F 48% 30.01 in 10.0 mi WSW 6.9 mph - N/A   Mostly Cloudy